Weather past 2 weeks in Saipan, Northern Mariana Islands

Now
85 °F

Scattered clouds.


Feels Like: 97 °F
Forecast: 79 / 84 °F
Wind: 8 mph from Northeast

Location: Saipan International Airport

Current Time: Jul 31, 2015 at 10:03:34 AM

Latest Report: Jul 31, 2015 at 8:54 AM


Visibility: 10 mi

Pressure: 29.89 "Hg

Humidity: 80%

Dew point: 78 °F

Location of SaipanLocation

Historic Weather in Saipan — Graph

°F

Saipan temperature yesterday

Maximum temperature yesterday: 88 °F (at 2:54 PM)
Minimum temperature yesterday: 79 °F (at 11:54 PM)
Average temperature yesterday: 83 °F

Past Weeks' High & Low Weather Summary

 TemperatureHumidityPressure
High88 °F (Jul 23, 11:54 AM)100% (Jul 18, 10:22 AM)30.05 "Hg (Jul 18, 10:22 AM)
Low77 °F (Jul 18, 6:15 AM)65% (Jul 24, 12:54 PM)29.82 "Hg (Jul 27, 4:01 PM)
Average82 °F82%29.93 "Hg
* Reported Jul 16 8:54 AM — Jul 31 8:54 AM, Saipan, Weather by CustomWeather, © 2015

Note: Actual official high and low records may vary slightly from our data, if they occured in-between our weather recording intervals... More about our weather records

Advertising

Saipan weather history for previous 24 hours

 ConditionsComfort  
Time TempWeatherWind HumidityBarometerVisibility
8:54 AM
Fri, Jul 31
85 °FScattered clouds.8 mph80%29.89 "Hg10 mi
6:54 AM82 °FScattered clouds.5 mph82%29.88 "Hg10 mi
5:54 AM80 °FPassing clouds.5 mph87%29.87 "Hg10 mi
4:54 AM79 °FPassing clouds.5 mph90%29.86 "Hg10 mi
3:54 AM79 °FClear.6 mph88%29.86 "Hg10 mi
2:54 AM78 °FClear.5 mph90%29.86 "Hg10 mi
1:54 AM80 °FClear.7 mph87%29.87 "Hg10 mi
12:54 AM80 °FPassing clouds.7 mph87%29.89 "Hg10 mi
11:54 PM
Thu, Jul 30
79 °FClear.5 mph90%29.90 "Hg10 mi
10:54 PM80 °FClear.3 mph87%29.92 "Hg10 mi
9:54 PM81 °FClear.5 mph85%29.91 "Hg10 mi
8:54 PM81 °FClear.3 mph82%29.90 "Hg10 mi
7:54 PM82 °FPassing clouds.6 mph79%29.89 "Hg10 mi
6:54 PM82 °FPassing clouds.5 mph79%29.86 "Hg10 mi
5:54 PM84 °FPassing clouds.5 mph74%29.85 "Hg10 mi
4:54 PM86 °FSunny.10 mph67%29.84 "Hg10 mi
3:54 PM87 °FScattered clouds.8 mph65%29.84 "Hg10 mi
2:54 PM88 °FPassing clouds.13 mph67%29.85 "Hg10 mi
1:54 PM86 °FSunny.12 mph72%29.86 "Hg10 mi
12:54 PM87 °FSunny.13 mph69%29.86 "Hg10 mi
11:54 AM86 °FSunny.13 mph70%29.88 "Hg10 mi
10:54 AM87 °FScattered clouds.7 mph69%29.88 "Hg10 mi
Weather by CustomWeather, © 2015

See weather overviewHow to use our weather pages